Year,Month,Day,Hour,Minute,Value (Times are PST for temperature in C)
2006,06,13,00,00,17.60
2006,06,13,00,01,17.60
2006,06,13,00,02,17.60
2006,06,13,00,03,17.60
2006,06,13,00,04,17.60
2006,06,13,00,05,17.60
2006,06,13,00,06,17.60
2006,06,13,00,07,17.50
2006,06,13,00,08,17.50
2006,06,13,00,09,17.50
2006,06,13,00,10,17.50
2006,06,13,00,11,17.50
2006,06,13,00,12,17.50
2006,06,13,00,13,17.40
2006,06,13,00,14,17.40
2006,06,13,00,15,17.40
2006,06,13,00,16,17.40
2006,06,13,00,17,17.30
2006,06,13,00,18,17.30
2006,06,13,00,19,17.30
2006,06,13,00,20,17.30
2006,06,13,00,21,17.30
2006,06,13,00,22,17.30
2006,06,13,00,23,17.30
2006,06,13,00,24,17.30
2006,06,13,00,25,17.30
2006,06,13,00,26,17.30
2006,06,13,00,27,17.30
2006,06,13,00,28,17.30
2006,06,13,00,29,17.30
2006,06,13,00,30,17.30
2006,06,13,00,31,17.20
2006,06,13,00,32,17.20
2006,06,13,00,33,17.20
2006,06,13,00,34,17.20
2006,06,13,00,35,17.10
2006,06,13,00,36,17.10
2006,06,13,00,37,17.10
2006,06,13,00,38,17.10
2006,06,13,00,39,17.00
2006,06,13,00,40,17.00
2006,06,13,00,41,17.00
2006,06,13,00,42,16.90
2006,06,13,00,43,16.90
2006,06,13,00,44,16.80
2006,06,13,00,45,16.80
2006,06,13,00,46,16.70
2006,06,13,00,47,16.70
2006,06,13,00,48,16.70
2006,06,13,00,49,16.70
2006,06,13,00,50,16.60
2006,06,13,00,51,16.50
2006,06,13,00,52,16.40
2006,06,13,00,53,16.40
2006,06,13,00,54,16.40
2006,06,13,00,55,16.30
2006,06,13,00,56,16.30
2006,06,13,00,57,16.30
2006,06,13,00,58,16.20
2006,06,13,00,59,16.20
2006,06,13,01,00,16.10
2006,06,13,01,01,16.10
2006,06,13,01,02,16.10
2006,06,13,01,03,16.10
2006,06,13,01,04,16.10
2006,06,13,01,05,16.00
2006,06,13,01,06,15.90
2006,06,13,01,07,15.90
2006,06,13,01,08,15.90
2006,06,13,01,09,15.80
2006,06,13,01,10,15.80
2006,06,13,01,11,15.80
2006,06,13,01,12,15.80
2006,06,13,01,13,15.80
2006,06,13,01,14,15.80
2006,06,13,01,15,15.80
2006,06,13,01,16,15.80
2006,06,13,01,17,15.80
2006,06,13,01,18,15.80
2006,06,13,01,19,15.80
2006,06,13,01,20,15.80
2006,06,13,01,21,15.80
2006,06,13,01,22,15.80
2006,06,13,01,23,15.80
2006,06,13,01,24,15.80
2006,06,13,01,25,15.80
2006,06,13,01,26,15.70
2006,06,13,01,27,15.70
2006,06,13,01,28,15.70
2006,06,13,01,29,15.70
2006,06,13,01,30,15.70
2006,06,13,01,31,15.70
2006,06,13,01,32,15.70
2006,06,13,01,33,15.70
2006,06,13,01,34,15.70
2006,06,13,01,35,15.70
2006,06,13,01,36,15.70
2006,06,13,01,37,15.80
2006,06,13,01,38,15.80
2006,06,13,01,39,15.80
2006,06,13,01,40,15.80
2006,06,13,01,41,15.80
2006,06,13,01,42,15.80
2006,06,13,01,43,15.80
2006,06,13,01,44,15.80
2006,06,13,01,45,15.80
2006,06,13,01,46,15.80
2006,06,13,01,47,15.80
2006,06,13,01,48,15.80
2006,06,13,01,49,15.80
2006,06,13,01,50,15.80
2006,06,13,01,51,15.80
2006,06,13,01,52,15.80
2006,06,13,01,53,15.80
2006,06,13,01,54,15.80
2006,06,13,01,55,15.80
2006,06,13,01,56,15.80
2006,06,13,01,57,15.80
2006,06,13,01,58,15.70
2006,06,13,01,59,15.70
2006,06,13,02,00,15.70
2006,06,13,02,01,15.60
2006,06,13,02,02,15.60
2006,06,13,02,03,15.60
2006,06,13,02,04,15.60
2006,06,13,02,05,15.50
2006,06,13,02,06,15.50
2006,06,13,02,07,15.50
2006,06,13,02,08,15.50
2006,06,13,02,09,15.50
2006,06,13,02,10,15.50
2006,06,13,02,11,15.40
2006,06,13,02,12,15.40
2006,06,13,02,13,15.40
2006,06,13,02,14,15.40
2006,06,13,02,15,15.40
2006,06,13,02,16,15.30
2006,06,13,02,17,15.30
2006,06,13,02,18,15.30
2006,06,13,02,19,15.30
2006,06,13,02,20,15.30
2006,06,13,02,21,15.30
2006,06,13,02,22,15.30
2006,06,13,02,23,15.30
2006,06,13,02,24,15.30
2006,06,13,02,25,15.30
2006,06,13,02,26,15.20
2006,06,13,02,27,15.20
2006,06,13,02,28,15.20
2006,06,13,02,29,15.20
2006,06,13,02,30,15.10
2006,06,13,02,31,15.10
2006,06,13,02,32,15.10
2006,06,13,02,33,15.00
2006,06,13,02,34,15.00
2006,06,13,02,35,15.00
2006,06,13,02,36,15.00
2006,06,13,02,37,14.90
2006,06,13,02,38,14.90
2006,06,13,02,39,14.90
2006,06,13,02,40,14.90
2006,06,13,02,41,15.00
2006,06,13,02,42,15.00
2006,06,13,02,43,15.00
2006,06,13,02,44,15.00
2006,06,13,02,45,15.10
2006,06,13,02,46,15.10
2006,06,13,02,47,15.20
2006,06,13,02,48,15.20
2006,06,13,02,49,15.20
2006,06,13,02,50,15.30
2006,06,13,02,51,15.30
2006,06,13,02,52,15.30
2006,06,13,02,53,15.30
2006,06,13,02,54,15.30
2006,06,13,02,55,15.30
2006,06,13,02,56,15.30
2006,06,13,02,57,15.30
2006,06,13,02,58,15.30
2006,06,13,02,59,15.30
2006,06,13,03,00,15.30
2006,06,13,03,01,15.40
2006,06,13,03,02,15.40
2006,06,13,03,03,15.30
2006,06,13,03,04,15.30
2006,06,13,03,05,15.30
2006,06,13,03,06,15.30
2006,06,13,03,07,15.30
2006,06,13,03,08,15.30
2006,06,13,03,09,15.30
2006,06,13,03,10,15.30
2006,06,13,03,11,15.30
2006,06,13,03,12,15.30
2006,06,13,03,13,15.30
2006,06,13,03,14,15.30
2006,06,13,03,15,15.30
2006,06,13,03,16,15.30
2006,06,13,03,17,15.30
2006,06,13,03,18,15.30
2006,06,13,03,19,15.30
2006,06,13,03,20,15.30
2006,06,13,03,21,15.30
2006,06,13,03,22,15.30
2006,06,13,03,23,15.30
2006,06,13,03,24,15.30
2006,06,13,03,25,15.30
2006,06,13,03,26,15.40
2006,06,13,03,27,15.40
2006,06,13,03,28,15.40
2006,06,13,03,29,15.50
2006,06,13,03,30,15.50
2006,06,13,03,31,15.50
2006,06,13,03,32,15.50
2006,06,13,03,33,15.50
2006,06,13,03,34,15.50
2006,06,13,03,35,15.50
2006,06,13,03,36,15.50
2006,06,13,03,37,15.50
2006,06,13,03,38,15.50
2006,06,13,03,39,15.50
2006,06,13,03,40,15.40
2006,06,13,03,41,15.40
2006,06,13,03,42,15.30
2006,06,13,03,43,15.30
2006,06,13,03,44,15.30
2006,06,13,03,45,15.30
2006,06,13,03,46,15.20
2006,06,13,03,47,15.20
2006,06,13,03,48,15.20
2006,06,13,03,49,15.10
2006,06,13,03,50,15.10
2006,06,13,03,51,15.10
2006,06,13,03,52,15.00
2006,06,13,03,53,15.00
2006,06,13,03,54,15.00
2006,06,13,03,55,14.90
2006,06,13,03,56,14.90
2006,06,13,03,57,14.90
2006,06,13,03,58,14.80
2006,06,13,03,59,14.80
2006,06,13,04,00,14.80
2006,06,13,04,01,14.80
2006,06,13,04,02,14.80
2006,06,13,04,03,14.80
2006,06,13,04,04,14.80
2006,06,13,04,05,14.70
2006,06,13,04,06,14.70
2006,06,13,04,07,14.70
2006,06,13,04,08,14.70
2006,06,13,04,09,14.70
2006,06,13,04,10,14.70
2006,06,13,04,11,14.70
2006,06,13,04,12,14.70
2006,06,13,04,13,14.70
2006,06,13,04,14,14.70
2006,06,13,04,15,14.70
2006,06,13,04,16,14.70
2006,06,13,04,17,14.70
2006,06,13,04,18,14.70
2006,06,13,04,19,14.70
2006,06,13,04,20,14.70
2006,06,13,04,21,14.70
2006,06,13,04,22,14.60
2006,06,13,04,23,14.60
2006,06,13,04,24,14.60
2006,06,13,04,25,14.60
2006,06,13,04,26,14.60
2006,06,13,04,27,14.60
2006,06,13,04,28,14.60
2006,06,13,04,29,14.60
2006,06,13,04,30,14.60
2006,06,13,04,31,14.50
2006,06,13,04,32,14.50
2006,06,13,04,33,14.50
2006,06,13,04,34,14.50
2006,06,13,04,35,14.50
2006,06,13,04,36,14.50
2006,06,13,04,37,14.50
2006,06,13,04,38,14.50
2006,06,13,04,39,14.50
2006,06,13,04,40,14.50
2006,06,13,04,41,14.50
2006,06,13,04,42,14.50
2006,06,13,04,43,14.50
2006,06,13,04,44,14.60
2006,06,13,04,45,14.60
2006,06,13,04,46,14.60
2006,06,13,04,47,14.70
2006,06,13,04,48,14.70
2006,06,13,04,49,14.80
2006,06,13,04,50,14.80
2006,06,13,04,51,14.80
2006,06,13,04,52,14.80
2006,06,13,04,53,14.80
2006,06,13,04,54,14.90
2006,06,13,04,55,14.90
2006,06,13,04,56,14.90
2006,06,13,04,57,14.90
2006,06,13,04,58,15.00
2006,06,13,04,59,15.00
2006,06,13,05,00,15.00
2006,06,13,05,01,15.00
2006,06,13,05,02,15.10
2006,06,13,05,03,15.10
2006,06,13,05,04,15.10
2006,06,13,05,05,15.10
2006,06,13,05,06,15.10
2006,06,13,05,07,15.10
2006,06,13,05,08,15.10
2006,06,13,05,09,15.10
2006,06,13,05,10,15.10
2006,06,13,05,11,15.10
2006,06,13,05,12,15.10
2006,06,13,05,13,15.10
2006,06,13,05,14,15.10
2006,06,13,05,15,15.10
2006,06,13,05,16,15.10
2006,06,13,05,17,15.10
2006,06,13,05,18,15.10
2006,06,13,05,19,15.00
2006,06,13,05,20,15.00
2006,06,13,05,21,15.00
2006,06,13,05,22,15.00
2006,06,13,05,23,14.90
2006,06,13,05,24,14.90
2006,06,13,05,25,14.90
2006,06,13,05,26,14.90
2006,06,13,05,27,14.90
2006,06,13,05,28,14.90
2006,06,13,05,29,14.90
2006,06,13,05,30,14.90
2006,06,13,05,31,14.90
2006,06,13,05,32,14.90
2006,06,13,05,33,15.00
2006,06,13,05,34,15.00
2006,06,13,05,35,15.00
2006,06,13,05,36,15.10
2006,06,13,05,37,15.10
2006,06,13,05,38,15.20
2006,06,13,05,39,15.20
2006,06,13,05,40,15.20
2006,06,13,05,41,15.20
2006,06,13,05,42,15.30
2006,06,13,05,43,15.30
2006,06,13,05,44,15.30
2006,06,13,05,45,15.30
2006,06,13,05,46,15.30
2006,06,13,05,47,15.30
2006,06,13,05,48,15.30
2006,06,13,05,49,15.30
2006,06,13,05,50,15.30
2006,06,13,05,51,15.30
2006,06,13,05,52,15.30
2006,06,13,05,53,15.30
2006,06,13,05,54,15.30
2006,06,13,05,55,15.30
2006,06,13,05,56,15.30
2006,06,13,05,57,15.30
2006,06,13,05,58,15.30
2006,06,13,05,59,15.30
2006,06,13,06,00,15.30
2006,06,13,06,01,15.30
2006,06,13,06,02,15.30
2006,06,13,06,03,15.30
2006,06,13,06,04,15.30
2006,06,13,06,05,15.30
2006,06,13,06,06,15.40
2006,06,13,06,07,15.40
2006,06,13,06,08,15.40
2006,06,13,06,09,15.40
2006,06,13,06,10,15.40
2006,06,13,06,11,15.40
2006,06,13,06,12,15.40
2006,06,13,06,13,15.40
2006,06,13,06,14,15.40
2006,06,13,06,15,15.40
2006,06,13,06,16,15.40
2006,06,13,06,17,15.40
2006,06,13,06,18,15.40
2006,06,13,06,19,15.40
2006,06,13,06,20,15.40
2006,06,13,06,21,15.40
2006,06,13,06,22,15.40
2006,06,13,06,23,15.40
2006,06,13,06,24,15.50
2006,06,13,06,25,15.50
2006,06,13,06,26,15.50
2006,06,13,06,27,15.50
2006,06,13,06,28,15.50
2006,06,13,06,29,15.50
2006,06,13,06,30,15.60
2006,06,13,06,31,15.60
2006,06,13,06,32,15.60
2006,06,13,06,33,15.60
2006,06,13,06,34,15.70
2006,06,13,06,35,15.70
2006,06,13,06,36,15.70
2006,06,13,06,37,15.80
2006,06,13,06,38,15.80
2006,06,13,06,39,15.80
2006,06,13,06,40,15.80
2006,06,13,06,41,15.80
2006,06,13,06,42,15.90
2006,06,13,06,43,15.90
2006,06,13,06,44,15.90
2006,06,13,06,45,16.00
2006,06,13,06,46,16.10
2006,06,13,06,47,16.10
2006,06,13,06,48,16.10
2006,06,13,06,49,16.10
2006,06,13,06,50,16.10
2006,06,13,06,51,16.10
2006,06,13,06,52,16.10
2006,06,13,06,53,16.10
2006,06,13,06,54,16.10
2006,06,13,06,55,16.10
2006,06,13,06,56,16.10
2006,06,13,06,57,16.10
2006,06,13,06,58,16.10
2006,06,13,06,59,16.10
2006,06,13,07,00,16.10
2006,06,13,07,01,16.10
2006,06,13,07,02,16.10
2006,06,13,07,03,16.20
2006,06,13,07,04,16.20
2006,06,13,07,05,16.20
2006,06,13,07,06,16.20
2006,06,13,07,07,16.20
2006,06,13,07,08,16.20
2006,06,13,07,09,16.20
2006,06,13,07,10,16.20
2006,06,13,07,11,16.20
2006,06,13,07,12,16.20
2006,06,13,07,13,16.20
2006,06,13,07,14,16.20
2006,06,13,07,15,16.20
2006,06,13,07,16,16.20
2006,06,13,07,17,16.20
2006,06,13,07,18,16.20
2006,06,13,07,19,16.20
2006,06,13,07,20,16.20
2006,06,13,07,21,16.10
2006,06,13,07,22,16.10
2006,06,13,07,23,16.10
2006,06,13,07,24,16.10
2006,06,13,07,25,16.10
2006,06,13,07,26,16.10
2006,06,13,07,27,16.10
2006,06,13,07,28,16.10
2006,06,13,07,29,16.10
2006,06,13,07,30,16.10
2006,06,13,07,31,16.10
2006,06,13,07,32,16.10
2006,06,13,07,33,16.10
2006,06,13,07,34,16.10
2006,06,13,07,35,16.10
2006,06,13,07,36,16.10
2006,06,13,07,37,16.10
2006,06,13,07,38,16.10
2006,06,13,07,39,16.10
2006,06,13,07,40,16.10
2006,06,13,07,41,16.10
2006,06,13,07,42,16.10
2006,06,13,07,43,16.10
2006,06,13,07,44,16.20
2006,06,13,07,45,16.20
2006,06,13,07,46,16.20
2006,06,13,07,47,16.20
2006,06,13,07,48,16.20
2006,06,13,07,49,16.20
2006,06,13,07,50,16.20
2006,06,13,07,51,16.30
2006,06,13,07,52,16.30
2006,06,13,07,53,16.30
2006,06,13,07,54,16.30
2006,06,13,07,55,16.30
2006,06,13,07,56,16.30
2006,06,13,07,57,16.30
2006,06,13,07,58,16.30
2006,06,13,07,59,16.30
2006,06,13,08,00,16.40
2006,06,13,08,01,16.40
2006,06,13,08,02,16.40
2006,06,13,08,03,16.40
2006,06,13,08,04,16.40
2006,06,13,08,05,16.40
2006,06,13,08,06,16.40
2006,06,13,08,07,16.40
2006,06,13,08,08,16.40
2006,06,13,08,09,16.40
2006,06,13,08,10,16.40
2006,06,13,08,11,16.50
2006,06,13,08,12,16.60
2006,06,13,08,13,16.60
2006,06,13,08,14,16.60
2006,06,13,08,15,16.60
2006,06,13,08,16,16.60
2006,06,13,08,17,16.60
2006,06,13,08,18,16.70
2006,06,13,08,19,16.60
2006,06,13,08,20,16.60
2006,06,13,08,21,16.60
2006,06,13,08,22,16.60
2006,06,13,08,23,16.70
2006,06,13,08,24,16.70
2006,06,13,08,25,16.70
2006,06,13,08,26,16.70
2006,06,13,08,27,16.70
2006,06,13,08,28,16.70
2006,06,13,08,29,16.80
2006,06,13,08,30,16.80
2006,06,13,08,31,16.90
2006,06,13,08,32,16.90
2006,06,13,08,33,16.90
2006,06,13,08,34,17.00
2006,06,13,08,35,17.00
2006,06,13,08,36,17.00
2006,06,13,08,37,17.10
2006,06,13,08,38,17.10
2006,06,13,08,39,17.10
2006,06,13,08,40,17.20
2006,06,13,08,41,17.20
2006,06,13,08,42,17.20
2006,06,13,08,43,17.20
2006,06,13,08,44,17.20
2006,06,13,08,45,17.20
2006,06,13,08,46,17.30
2006,06,13,08,47,17.30
2006,06,13,08,48,17.30
2006,06,13,08,49,17.30
2006,06,13,08,50,17.30
2006,06,13,08,51,17.30
2006,06,13,08,52,17.30
2006,06,13,08,53,17.30
2006,06,13,08,54,17.30
2006,06,13,08,55,17.30
2006,06,13,08,56,17.40
2006,06,13,08,57,17.50
2006,06,13,08,58,17.50
2006,06,13,08,59,17.50
2006,06,13,09,00,17.50
2006,06,13,09,01,17.50
2006,06,13,09,02,17.50
2006,06,13,09,03,17.60
2006,06,13,09,04,17.70
2006,06,13,09,05,17.70
2006,06,13,09,06,17.80
2006,06,13,09,07,17.90
2006,06,13,09,08,17.90
2006,06,13,09,09,18.00
2006,06,13,09,10,18.10
2006,06,13,09,11,18.10
2006,06,13,09,12,18.20
2006,06,13,09,13,18.20
2006,06,13,09,14,18.20
2006,06,13,09,15,18.30
2006,06,13,09,16,18.30
2006,06,13,09,17,18.30
2006,06,13,09,18,18.40
2006,06,13,09,19,18.40
2006,06,13,09,20,18.40
2006,06,13,09,21,18.50
2006,06,13,09,22,18.50
2006,06,13,09,23,18.50
2006,06,13,09,24,18.50
2006,06,13,09,25,18.50
2006,06,13,09,26,18.60
2006,06,13,09,27,18.60
2006,06,13,09,28,18.60
2006,06,13,09,29,18.60
2006,06,13,09,30,18.70
2006,06,13,09,31,18.70
2006,06,13,09,32,18.70
2006,06,13,09,33,18.80
2006,06,13,09,34,18.80
2006,06,13,09,35,18.80
2006,06,13,09,36,18.90
2006,06,13,09,37,18.90
2006,06,13,09,38,18.90
2006,06,13,09,39,18.90
2006,06,13,09,40,18.90
2006,06,13,09,41,18.90
2006,06,13,09,42,19.10
2006,06,13,09,43,19.10
2006,06,13,09,44,19.10
2006,06,13,09,45,19.10
2006,06,13,09,46,19.10
2006,06,13,09,47,19.10
2006,06,13,09,48,19.00
2006,06,13,09,49,18.90
2006,06,13,09,50,18.80
2006,06,13,09,51,18.70
2006,06,13,09,52,18.60
2006,06,13,09,53,18.50
2006,06,13,09,54,18.40
2006,06,13,09,55,18.40
2006,06,13,09,56,18.30
2006,06,13,09,57,18.30
2006,06,13,09,58,18.30
2006,06,13,09,59,18.20
2006,06,13,10,00,18.20
2006,06,13,10,01,18.20
2006,06,13,10,02,18.20
2006,06,13,10,03,18.20
2006,06,13,10,04,18.20
2006,06,13,10,05,18.20
2006,06,13,10,06,18.20
2006,06,13,10,07,18.20
2006,06,13,10,08,18.20
2006,06,13,10,09,18.20
2006,06,13,10,10,18.20
2006,06,13,10,11,18.20
2006,06,13,10,12,18.20
2006,06,13,10,13,18.10
2006,06,13,10,14,18.10
2006,06,13,10,15,18.10
2006,06,13,10,16,18.00
2006,06,13,10,17,17.90
2006,06,13,10,18,17.90
2006,06,13,10,19,17.90
2006,06,13,10,20,17.90
2006,06,13,10,21,17.90
2006,06,13,10,22,17.90
2006,06,13,10,23,17.90
2006,06,13,10,24,17.90
2006,06,13,10,25,17.90
2006,06,13,10,26,17.90
2006,06,13,10,27,17.90
2006,06,13,10,28,18.10
2006,06,13,10,29,18.10
2006,06,13,10,30,18.20
2006,06,13,10,31,18.20
2006,06,13,10,32,18.20
2006,06,13,10,33,18.30
2006,06,13,10,34,18.40
2006,06,13,10,35,18.50
2006,06,13,10,36,18.50
2006,06,13,10,37,18.50
2006,06,13,10,38,18.50
2006,06,13,10,39,18.50
2006,06,13,10,40,18.50
2006,06,13,10,41,18.50
2006,06,13,10,42,18.50
2006,06,13,10,43,18.60
2006,06,13,10,44,18.60
2006,06,13,10,45,18.70
2006,06,13,10,46,18.90
2006,06,13,10,47,19.00
2006,06,13,10,48,19.10
2006,06,13,10,49,19.20
2006,06,13,10,50,19.30
2006,06,13,10,51,19.40
2006,06,13,10,52,19.50
2006,06,13,10,53,19.50
2006,06,13,10,54,19.50
2006,06,13,10,55,19.60
2006,06,13,10,56,19.60
2006,06,13,10,57,19.60
2006,06,13,10,58,19.70
2006,06,13,10,59,19.70
2006,06,13,11,00,19.80
2006,06,13,11,01,19.70
2006,06,13,11,02,19.70
2006,06,13,11,03,19.70
2006,06,13,11,04,19.70
2006,06,13,11,05,19.70
2006,06,13,11,06,19.70
2006,06,13,11,07,19.70
2006,06,13,11,08,19.70
2006,06,13,11,09,19.70
2006,06,13,11,10,19.70
2006,06,13,11,11,19.60
2006,06,13,11,12,19.50
2006,06,13,11,13,19.50
2006,06,13,11,14,19.50
2006,06,13,11,15,19.50
2006,06,13,11,16,19.50
2006,06,13,11,17,19.60
2006,06,13,11,18,19.60
2006,06,13,11,19,19.70
2006,06,13,11,20,19.80
2006,06,13,11,21,19.90
2006,06,13,11,22,19.90
2006,06,13,11,23,19.90
2006,06,13,11,24,19.80
2006,06,13,11,25,19.90
2006,06,13,11,26,19.80
2006,06,13,11,27,19.80
2006,06,13,11,28,19.90
2006,06,13,11,29,19.90
2006,06,13,11,30,20.00
2006,06,13,11,31,20.00
2006,06,13,11,32,19.90
2006,06,13,11,33,19.90
2006,06,13,11,34,19.90
2006,06,13,11,35,19.80
2006,06,13,11,36,19.70
2006,06,13,11,37,19.60
2006,06,13,11,38,19.50
2006,06,13,11,39,19.40
2006,06,13,11,40,19.30
2006,06,13,11,41,19.20
2006,06,13,11,42,19.20
2006,06,13,11,43,19.10
2006,06,13,11,44,19.10
2006,06,13,11,45,19.00
2006,06,13,11,46,19.00
2006,06,13,11,47,19.10
2006,06,13,11,48,19.10
2006,06,13,11,49,19.20
2006,06,13,11,50,19.20
2006,06,13,11,51,19.30
2006,06,13,11,52,19.40
2006,06,13,11,53,19.50
2006,06,13,11,54,19.50
2006,06,13,11,55,19.40
2006,06,13,11,56,19.30
2006,06,13,11,57,19.30
2006,06,13,11,58,19.20
2006,06,13,11,59,19.20
2006,06,13,12,00,19.30
2006,06,13,12,01,19.30
2006,06,13,12,02,19.30
2006,06,13,12,03,19.30
2006,06,13,12,04,19.30
2006,06,13,12,05,19.30
2006,06,13,12,06,19.30
2006,06,13,12,07,19.30
2006,06,13,12,08,19.30
2006,06,13,12,09,19.30
2006,06,13,12,10,19.30
2006,06,13,12,11,19.30
2006,06,13,12,12,19.30
2006,06,13,12,13,19.40
2006,06,13,12,14,19.40
2006,06,13,12,15,19.50
2006,06,13,12,16,19.50
2006,06,13,12,17,19.40
2006,06,13,12,18,19.30
2006,06,13,12,19,19.30
2006,06,13,12,20,19.30
2006,06,13,12,21,19.30
2006,06,13,12,22,19.30
2006,06,13,12,23,19.40
2006,06,13,12,24,19.50
2006,06,13,12,25,19.60
2006,06,13,12,26,19.60
2006,06,13,12,27,19.70
2006,06,13,12,28,19.60
2006,06,13,12,29,19.60
2006,06,13,12,30,19.60
2006,06,13,12,31,19.70
2006,06,13,12,32,19.80
2006,06,13,12,33,19.70
2006,06,13,12,34,19.70
2006,06,13,12,35,19.70
2006,06,13,12,36,19.70
2006,06,13,12,37,19.60
2006,06,13,12,38,19.70
2006,06,13,12,39,19.70
2006,06,13,12,40,19.70
2006,06,13,12,41,19.80
2006,06,13,12,42,19.80
2006,06,13,12,43,19.90
2006,06,13,12,44,19.90
2006,06,13,12,45,20.00
2006,06,13,12,46,20.10
2006,06,13,12,47,20.10
2006,06,13,12,48,20.10
2006,06,13,12,49,20.10
2006,06,13,12,50,20.10
2006,06,13,12,51,20.10
2006,06,13,12,52,20.20
2006,06,13,12,53,20.20
2006,06,13,12,54,20.20
2006,06,13,12,55,20.20
2006,06,13,12,56,20.20
2006,06,13,12,57,20.20
2006,06,13,12,58,20.10
2006,06,13,12,59,19.90
2006,06,13,13,00,19.90
2006,06,13,13,01,19.90
2006,06,13,13,02,19.90
2006,06,13,13,03,20.00
2006,06,13,13,04,20.10
2006,06,13,13,05,20.20
2006,06,13,13,06,20.10
2006,06,13,13,07,20.00
2006,06,13,13,08,19.90
2006,06,13,13,09,19.90
2006,06,13,13,10,19.90
2006,06,13,13,11,19.90
2006,06,13,13,12,19.90
2006,06,13,13,13,19.90
2006,06,13,13,14,19.80
2006,06,13,13,15,19.80
2006,06,13,13,16,19.80
2006,06,13,13,17,19.80
2006,06,13,13,18,19.70
2006,06,13,13,19,19.70
2006,06,13,13,20,19.60
2006,06,13,13,21,19.60
2006,06,13,13,22,19.60
2006,06,13,13,23,19.60
2006,06,13,13,24,19.60
2006,06,13,13,25,19.60
2006,06,13,13,26,19.60
2006,06,13,13,27,19.60
2006,06,13,13,28,19.70
2006,06,13,13,29,19.70
2006,06,13,13,30,19.80
2006,06,13,13,31,19.90
2006,06,13,13,32,19.90
2006,06,13,13,33,19.90
2006,06,13,13,34,19.80
2006,06,13,13,35,19.90
2006,06,13,13,36,19.80
2006,06,13,13,37,19.80
2006,06,13,13,38,19.80
2006,06,13,13,39,19.80
2006,06,13,13,40,19.70
2006,06,13,13,41,19.80
2006,06,13,13,42,19.80
2006,06,13,13,43,19.80
2006,06,13,13,44,19.80
2006,06,13,13,45,19.90
2006,06,13,13,46,19.90
2006,06,13,13,47,19.90
2006,06,13,13,48,20.10
2006,06,13,13,49,20.20
2006,06,13,13,50,20.20
2006,06,13,13,51,20.20
2006,06,13,13,52,20.20
2006,06,13,13,53,20.20
2006,06,13,13,54,20.30
2006,06,13,13,55,20.20
2006,06,13,13,56,20.20
2006,06,13,13,57,20.20
2006,06,13,13,58,20.30
2006,06,13,13,59,20.40
2006,06,13,14,00,20.50
2006,06,13,14,01,20.50
2006,06,13,14,02,20.50
2006,06,13,14,03,20.50
2006,06,13,14,04,20.50
2006,06,13,14,05,20.40
2006,06,13,14,06,20.50
2006,06,13,14,07,20.60
2006,06,13,14,08,20.70
2006,06,13,14,09,20.80
2006,06,13,14,10,20.90
2006,06,13,14,11,20.80
2006,06,13,14,12,20.90
2006,06,13,14,13,20.90
2006,06,13,14,14,21.00
2006,06,13,14,15,21.10
2006,06,13,14,16,21.10
2006,06,13,14,17,21.00
2006,06,13,14,18,20.80
2006,06,13,14,19,20.60
2006,06,13,14,20,20.60
2006,06,13,14,21,20.60
2006,06,13,14,22,20.50
2006,06,13,14,23,20.50
2006,06,13,14,24,20.40
2006,06,13,14,25,20.30
2006,06,13,14,26,20.30
2006,06,13,14,27,20.20
2006,06,13,14,28,20.20
2006,06,13,14,29,20.10
2006,06,13,14,30,20.10
2006,06,13,14,31,20.10
2006,06,13,14,32,20.20
2006,06,13,14,33,20.20
2006,06,13,14,34,20.20
2006,06,13,14,35,20.20
2006,06,13,14,36,20.20
2006,06,13,14,37,20.30
2006,06,13,14,38,20.30
2006,06,13,14,39,20.30
2006,06,13,14,40,20.30
2006,06,13,14,41,20.30
2006,06,13,14,42,20.40
2006,06,13,14,43,20.50
2006,06,13,14,44,20.50
2006,06,13,14,45,20.60
2006,06,13,14,46,20.80
2006,06,13,14,47,20.80
2006,06,13,14,48,21.00
2006,06,13,14,49,21.00
2006,06,13,14,50,20.80
2006,06,13,14,51,20.80
2006,06,13,14,52,20.70
2006,06,13,14,53,20.60
2006,06,13,14,54,20.60
2006,06,13,14,55,20.60
2006,06,13,14,56,20.60
2006,06,13,14,57,20.60
2006,06,13,14,58,20.60
2006,06,13,14,59,20.50
2006,06,13,15,00,20.50
2006,06,13,15,01,20.50
2006,06,13,15,02,20.60
2006,06,13,15,03,20.60
2006,06,13,15,04,20.60
2006,06,13,15,05,20.50
2006,06,13,15,06,20.50
2006,06,13,15,07,20.60
2006,06,13,15,08,20.60
2006,06,13,15,09,20.50
2006,06,13,15,10,20.50
2006,06,13,15,11,20.50
2006,06,13,15,12,20.50
2006,06,13,15,13,20.60
2006,06,13,15,14,20.70
2006,06,13,15,15,20.80
2006,06,13,15,16,21.00
2006,06,13,15,17,21.10
2006,06,13,15,18,21.10
2006,06,13,15,19,21.00
2006,06,13,15,20,20.90
2006,06,13,15,21,21.00
2006,06,13,15,22,21.00
2006,06,13,15,23,21.00
2006,06,13,15,24,21.00
2006,06,13,15,25,20.90
2006,06,13,15,26,21.00
2006,06,13,15,27,21.00
2006,06,13,15,28,21.10
2006,06,13,15,29,21.10
2006,06,13,15,30,21.00
2006,06,13,15,31,21.00
2006,06,13,15,32,21.00
2006,06,13,15,33,21.10
2006,06,13,15,34,21.20
2006,06,13,15,35,21.20
2006,06,13,15,36,21.30
2006,06,13,15,37,21.30
2006,06,13,15,38,21.30
2006,06,13,15,39,21.30
2006,06,13,15,40,21.40
2006,06,13,15,41,21.60
2006,06,13,15,42,21.60
2006,06,13,15,43,21.60
2006,06,13,15,44,21.60
2006,06,13,15,45,21.60
2006,06,13,15,46,21.60
2006,06,13,15,47,21.60
2006,06,13,15,48,21.50
2006,06,13,15,49,21.40
2006,06,13,15,50,21.30
2006,06,13,15,51,21.30
2006,06,13,15,52,21.30
2006,06,13,15,53,21.40
2006,06,13,15,54,21.60
2006,06,13,15,55,21.60
2006,06,13,15,56,21.50
2006,06,13,15,57,21.40
2006,06,13,15,58,21.40
2006,06,13,15,59,21.30
2006,06,13,16,00,21.40
2006,06,13,16,01,21.40
2006,06,13,16,02,21.40
2006,06,13,16,03,21.40
2006,06,13,16,04,21.40
2006,06,13,16,05,21.40
2006,06,13,16,06,21.40
2006,06,13,16,07,21.30
2006,06,13,16,08,21.30
2006,06,13,16,09,21.30
2006,06,13,16,10,21.30
2006,06,13,16,11,21.30
2006,06,13,16,12,21.30
2006,06,13,16,13,21.30
2006,06,13,16,14,21.20
2006,06,13,16,15,21.20
2006,06,13,16,16,21.20
2006,06,13,16,17,21.20
2006,06,13,16,18,21.30
2006,06,13,16,19,21.30
2006,06,13,16,20,21.30
2006,06,13,16,21,21.30
2006,06,13,16,22,21.40
2006,06,13,16,23,21.60
2006,06,13,16,24,21.50
2006,06,13,16,25,21.40
2006,06,13,16,26,21.30
2006,06,13,16,27,21.50
2006,06,13,16,28,21.60
2006,06,13,16,29,21.50
2006,06,13,16,30,21.30
2006,06,13,16,31,21.30
2006,06,13,16,32,21.30
2006,06,13,16,33,21.30
2006,06,13,16,34,21.30
2006,06,13,16,35,21.40
2006,06,13,16,36,21.60
2006,06,13,16,37,21.60
2006,06,13,16,38,21.60
2006,06,13,16,39,21.70
2006,06,13,16,40,21.70
2006,06,13,16,41,21.70
2006,06,13,16,42,21.80
2006,06,13,16,43,21.70
2006,06,13,16,44,21.70
2006,06,13,16,45,21.70
2006,06,13,16,46,21.70
2006,06,13,16,47,21.70
2006,06,13,16,48,21.60
2006,06,13,16,49,21.60
2006,06,13,16,50,21.60
2006,06,13,16,51,21.60
2006,06,13,16,52,21.60
2006,06,13,16,53,21.60
2006,06,13,16,54,21.60
2006,06,13,16,55,21.60
2006,06,13,16,56,21.70
2006,06,13,16,57,21.80
2006,06,13,16,58,21.90
2006,06,13,16,59,22.00
2006,06,13,17,00,22.20
2006,06,13,17,01,22.30
2006,06,13,17,02,22.40
2006,06,13,17,03,22.40
2006,06,13,17,04,22.50
2006,06,13,17,05,22.40
2006,06,13,17,06,22.20
2006,06,13,17,07,22.10
2006,06,13,17,08,22.00
2006,06,13,17,09,22.00
2006,06,13,17,10,21.90
2006,06,13,17,11,22.00
2006,06,13,17,12,22.00
2006,06,13,17,13,22.00
2006,06,13,17,14,22.10
2006,06,13,17,15,22.20
2006,06,13,17,16,22.30
2006,06,13,17,17,22.20
2006,06,13,17,18,22.20
2006,06,13,17,19,22.20